TimeCST,TemperatureF,Dew PointF,Humidity,Sea Level PressureIn,VisibilityMPH,Wind Direction,Wind SpeedMPH,Gust SpeedMPH,PrecipitationIn,Events,Conditions,WindDirDegrees,DateUTC
7:35 AM,41.2,31.1,67,29.93,10.0,West,8.1,-,N/A,,Clear,270,2012-12-06 13:35:00
7:55 AM,41.0,31.1,68,29.94,10.0,Calm,Calm,-,N/A,,Clear,0,2012-12-06 13:55:00
8:15 AM,40.6,31.1,69,29.93,10.0,Calm,Calm,-,N/A,,Clear,0,2012-12-06 14:15:00
8:35 AM,42.3,31.8,67,29.93,10.0,WNW,6.9,-,N/A,,Clear,290,2012-12-06 14:35:00
8:55 AM,44.8,32.0,61,29.93,10.0,WNW,8.1,-,N/A,,Clear,290,2012-12-06 14:55:00
9:15 AM,49.1,32.0,52,29.93,10.0,WNW,8.1,-,N/A,,Clear,300,2012-12-06 15:15:00
9:35 AM,52.7,31.6,45,29.93,10.0,WNW,11.5,-,N/A,,Clear,290,2012-12-06 15:35:00
9:55 AM,56.5,30.7,38,29.93,10.0,Calm,Calm,-,N/A,,Clear,0,2012-12-06 15:55:00
10:15 AM,58.8,29.7,33,29.93,10.0,West,10.4,-,N/A,,Clear,270,2012-12-06 16:15:00
10:35 AM,61.5,28.9,29,29.93,10.0,West,11.5,-,N/A,,Clear,270,2012-12-06 16:35:00
10:55 AM,64.4,28.6,26,29.92,10.0,West,11.5,-,N/A,,Clear,270,2012-12-06 16:55:00
11:15 AM,68.5,26.8,21,29.91,10.0,West,12.7,-,N/A,,Clear,280,2012-12-06 17:15:00
11:35 AM,72.1,24.4,17,29.90,10.0,WNW,16.1,20.7,N/A,,Clear,290,2012-12-06 17:35:00
11:55 AM,74.1,24.4,16,29.90,10.0,WNW,15.0,-,N/A,,Clear,290,2012-12-06 17:55:00
12:15 PM,76.5,23.7,14,29.89,10.0,WNW,16.1,21.9,N/A,,Clear,300,2012-12-06 18:15:00
12:35 PM,77.5,23.4,13,29.88,10.0,WNW,19.6,24.2,N/A,,Clear,290,2012-12-06 18:35:00
12:55 PM,78.3,22.8,13,29.87,10.0,NW,15.0,20.7,N/A,,Clear,310,2012-12-06 18:55:00
1:15 PM,79.0,22.3,12,29.86,10.0,WNW,15.0,20.7,N/A,,Clear,290,2012-12-06 19:15:00
1:35 PM,79.2,22.1,12,29.85,10.0,NW,15.0,18.4,N/A,,Clear,320,2012-12-06 19:35:00
1:55 PM,79.2,22.5,12,29.85,10.0,NNW,15.0,18.4,N/A,,Clear,330,2012-12-06 19:55:00
2:15 PM,78.4,22.1,12,29.84,10.0,WNW,11.5,-,N/A,,Clear,300,2012-12-06 20:15:00
2:35 PM,79.2,22.1,12,29.84,10.0,NW,13.8,-,N/A,,Clear,320,2012-12-06 20:35:00
2:55 PM,79.2,21.7,12,29.84,10.0,NNW,15.0,18.4,N/A,,Clear,330,2012-12-06 20:55:00
3:15 PM,79.2,22.5,12,29.84,10.0,NW,15.0,-,N/A,,Clear,320,2012-12-06 21:15:00
3:35 PM,78.8,22.3,12,29.84,10.0,NNW,10.4,-,N/A,,Clear,330,2012-12-06 21:35:00
3:55 PM,78.1,21.9,12,29.84,10.0,NW,11.5,-,N/A,,Clear,320,2012-12-06 21:55:00
4:15 PM,77.7,21.6,12,29.84,10.0,NW,10.4,-,N/A,,Clear,320,2012-12-06 22:15:00
4:35 PM,77.0,21.7,13,29.84,10.0,NNW,9.2,-,N/A,,Clear,330,2012-12-06 22:35:00
4:55 PM,75.9,21.7,13,29.84,10.0,North,9.2,-,N/A,,Clear,360,2012-12-06 22:55:00
5:15 PM,74.5,21.9,14,29.84,10.0,North,5.8,-,N/A,,Clear,350,2012-12-06 23:15:00
5:35 PM,71.4,21.7,15,29.84,10.0,Calm,Calm,-,N/A,,Clear,0,2012-12-06 23:35:00
5:55 PM,68.7,21.6,17,29.85,10.0,Calm,Calm,-,N/A,,Clear,0,2012-12-06 23:55:00
6:15 PM,66.2,21.7,18,29.85,10.0,Calm,Calm,-,N/A,,Clear,0,2012-12-07 00:15:00
6:35 PM,64.4,22.1,20,29.86,10.0,Calm,Calm,-,N/A,,Clear,0,2012-12-07 00:35:00
6:55 PM,62.4,21.7,21,29.86,10.0,Calm,Calm,-,N/A,,Clear,0,2012-12-07 00:55:00
7:15 PM,59.7,21.4,23,29.87,10.0,Calm,Calm,-,N/A,,Clear,0,2012-12-07 01:15:00
7:35 PM,58.3,21.4,24,29.88,10.0,Calm,Calm,-,N/A,,Clear,0,2012-12-07 01:35:00
7:55 PM,59.0,21.9,24,29.88,10.0,Calm,Calm,-,N/A,,Clear,0,2012-12-07 01:55:00
8:35 PM,56.7,23.9,28,29.89,10.0,NNE,5.8,-,N/A,,Clear,30,2012-12-07 02:35:00
8:55 PM,54.9,24.6,31,29.89,10.0,Calm,Calm,-,N/A,,Clear,0,2012-12-07 02:55:00
9:15 PM,53.2,24.8,33,29.89,10.0,Calm,Calm,-,N/A,,Clear,0,2012-12-07 03:15:00
9:35 PM,51.1,24.6,36,29.90,10.0,Calm,Calm,-,N/A,,Clear,0,2012-12-07 03:35:00
9:55 PM,50.2,24.8,37,29.90,10.0,Calm,Calm,-,N/A,,Clear,0,2012-12-07 03:55:00
10:15 PM,50.5,25.2,37,29.90,10.0,NE,6.9,-,N/A,,Clear,40,2012-12-07 04:15:00
10:35 PM,50.2,26.2,39,29.90,10.0,Calm,Calm,-,N/A,,Clear,0,2012-12-07 04:35:00
10:55 PM,49.3,26.6,41,29.90,10.0,Calm,Calm,-,N/A,,Clear,0,2012-12-07 04:55:00
11:15 PM,48.4,26.4,42,29.91,10.0,Calm,Calm,-,N/A,,Clear,0,2012-12-07 05:15:00
11:35 PM,49.3,26.6,41,29.91,10.0,Calm,Calm,-,N/A,,Clear,0,2012-12-07 05:35:00
11:55 PM,48.2,26.8,43,29.91,10.0,Calm,Calm,-,N/A,,Clear,0,2012-12-07 05:55:00